Powrót do katalogu

ISS

NAUKA

AktywnyNaukaVLEO
NORAD 49044·PAYLOAD·🇷🇺 Russia

Wystrzelony Jul 21, 2021 z Baikonur Cosmodrome

Loading…

Następne Przeloty (najbliższe 24 godziny)

TLE

ŚwieżeSource: Space-Track

Epoka: Sep 14, 2026, 08:04 UTC

1 49044U 21066A   26257.33674862  .00004921  00000-0  97059-4 0  9997
2 49044  51.6309 218.8707 0004933 140.1115 220.0237 15.49109585586509

Śledź ISS w czasie rzeczywistym z AllMySat

Download on the App Store